Time,TemperatureF,DewpointF,PressureIn,WindDirection,WindDirectionDegrees,WindSpeedMPH,WindSpeedGustMPH,Humidity,HourlyPrecipIn,Conditions,Clouds,dailyrainin,SoftwareType,DateUTC
2013-08-30 00:12:00,74.0,72.0,29.98,East,88,0.0,0.0,94,0.00,,,0.00,,2013-08-30 05:12:00,
2013-08-30 00:23:00,74.0,72.0,29.97,East,88,0.0,0.0,94,0.00,,,0.00,,2013-08-30 05:23:00,
2013-08-30 00:42:00,74.0,72.0,29.97,East,88,0.0,0.0,94,0.00,,,0.00,,2013-08-30 05:42:00,
2013-08-30 00:52:00,74.0,72.0,29.97,East,88,0.0,0.0,94,0.00,,,0.00,,2013-08-30 05:52:00,
2013-08-30 01:12:00,73.0,71.0,29.96,East,88,0.0,0.0,95,0.00,,,0.00,,2013-08-30 06:12:00,
2013-08-30 01:22:00,73.0,71.0,29.96,East,88,0.0,0.0,95,0.00,,,0.00,,2013-08-30 06:22:00,
2013-08-30 01:42:00,73.0,71.0,29.96,East,88,0.0,0.0,95,0.00,,,0.00,,2013-08-30 06:42:00,
2013-08-30 01:53:00,73.0,71.0,29.96,East,88,0.0,0.0,95,0.00,,,0.00,,2013-08-30 06:53:00,
2013-08-30 02:12:00,72.0,70.0,29.96,East,88,0.0,0.0,95,0.00,,,0.00,,2013-08-30 07:12:00,
2013-08-30 02:21:00,72.0,70.0,29.96,East,88,0.0,0.0,95,0.00,,,0.00,,2013-08-30 07:21:00,
2013-08-30 02:43:00,73.0,72.0,29.96,East,88,0.0,0.0,96,0.00,,,0.00,,2013-08-30 07:43:00,
2013-08-30 02:53:00,72.0,70.0,29.96,East,88,0.0,0.0,95,0.00,,,0.00,,2013-08-30 07:53:00,
2013-08-30 03:11:00,72.0,71.0,29.97,East,88,0.0,0.0,96,0.00,,,0.00,,2013-08-30 08:11:00,
2013-08-30 03:22:00,72.0,71.0,29.96,East,88,0.0,0.0,96,0.00,,,0.00,,2013-08-30 08:22:00,
2013-08-30 03:42:00,72.0,71.0,29.96,East,88,0.0,0.0,96,0.00,,,0.00,,2013-08-30 08:42:00,
2013-08-30 03:52:00,72.0,71.0,29.96,East,88,0.0,0.0,96,0.00,,,0.00,,2013-08-30 08:52:00,
2013-08-30 04:12:00,72.0,71.0,29.96,East,88,0.0,0.0,96,0.00,,,0.00,,2013-08-30 09:12:00,
2013-08-30 04:22:00,71.0,70.0,29.96,East,88,0.0,0.0,96,0.00,,,0.00,,2013-08-30 09:22:00,
2013-08-30 04:44:00,71.0,70.0,29.96,East,88,0.0,0.0,96,0.00,,,0.00,,2013-08-30 09:44:00,
2013-08-30 04:53:00,71.0,70.0,29.96,East,88,0.0,0.0,96,0.00,,,0.00,,2013-08-30 09:53:00,
2013-08-30 05:12:00,71.0,70.0,29.97,East,88,0.0,0.0,96,0.00,,,0.00,,2013-08-30 10:12:00,
2013-08-30 05:23:00,71.0,70.0,29.96,East,88,0.0,0.0,97,0.00,,,0.00,,2013-08-30 10:23:00,
2013-08-30 05:43:00,71.0,70.0,29.96,East,88,0.0,0.0,97,0.00,,,0.00,,2013-08-30 10:43:00,
2013-08-30 05:53:00,71.0,70.0,29.96,East,88,0.0,0.0,96,0.00,,,0.00,,2013-08-30 10:53:00,
2013-08-30 06:12:00,71.0,70.0,29.96,East,88,0.0,0.0,97,0.00,,,0.00,,2013-08-30 11:12:00,
2013-08-30 06:22:00,71.0,70.0,29.96,East,88,0.0,0.0,97,0.00,,,0.00,,2013-08-30 11:22:00,
2013-08-30 06:42:00,71.0,70.0,29.96,East,88,0.0,0.0,97,0.00,,,0.00,,2013-08-30 11:42:00,
2013-08-30 06:52:00,71.0,70.0,29.97,East,88,0.0,0.0,97,0.00,,,0.00,,2013-08-30 11:52:00,
2013-08-30 07:12:00,71.0,70.0,29.97,East,88,0.0,0.0,97,0.00,,,0.00,,2013-08-30 12:12:00,
2013-08-30 07:21:00,72.0,71.0,29.98,East,88,0.0,0.0,98,0.00,,,0.00,,2013-08-30 12:21:00,
2013-08-30 07:42:00,72.0,71.0,29.98,East,88,0.0,0.0,97,0.00,,,0.00,,2013-08-30 12:42:00,
2013-08-30 07:52:00,73.0,72.0,29.98,East,88,0.0,0.0,97,0.00,,,0.00,,2013-08-30 12:52:00,
2013-08-30 08:11:00,74.0,73.0,29.97,East,88,0.0,0.0,97,0.00,,,0.00,,2013-08-30 13:11:00,
2013-08-30 08:21:00,74.0,73.0,29.97,ESE,123,0.0,0.0,96,0.00,,,0.00,,2013-08-30 13:21:00,
2013-08-30 08:52:00,77.0,74.0,29.97,South,183,0.0,0.0,92,0.00,,,0.00,,2013-08-30 13:52:00,
2013-08-30 09:11:00,78.0,75.0,29.97,SSW,197,0.0,0.0,90,0.00,,,0.00,,2013-08-30 14:11:00,
2013-08-30 09:21:00,79.0,75.0,29.97,SSW,192,0.0,0.0,88,0.00,,,0.00,,2013-08-30 14:21:00,
2013-08-30 09:42:00,80.0,76.0,29.97,SSW,209,0.0,3.0,87,0.00,,,0.00,,2013-08-30 14:42:00,
2013-08-30 09:52:00,81.0,76.0,29.97,SSW,194,0.0,5.0,85,0.00,,,0.00,,2013-08-30 14:52:00,
2013-08-30 10:11:00,82.0,76.0,29.97,South,190,0.0,0.0,83,0.00,,,0.00,,2013-08-30 15:11:00,
2013-08-30 10:22:00,83.0,77.0,29.97,SSW,205,0.0,0.0,82,0.00,,,0.00,,2013-08-30 15:22:00,
2013-08-30 10:43:00,84.0,77.0,29.97,SSW,209,0.0,2.0,80,0.00,,,0.00,,2013-08-30 15:43:00,
2013-08-30 10:54:00,85.0,77.0,29.96,South,187,0.0,3.0,78,0.00,,,0.00,,2013-08-30 15:54:00,
2013-08-30 11:13:00,86.0,78.0,29.96,NW,310,0.0,1.0,77,0.00,,,0.00,,2013-08-30 16:13:00,
2013-08-30 11:25:00,87.0,77.0,29.96,South,171,0.0,5.0,73,0.00,,,0.00,,2013-08-30 16:25:00,
2013-08-30 11:43:00,87.0,77.0,29.96,South,183,0.0,5.0,72,0.00,,,0.00,,2013-08-30 16:43:00,
2013-08-30 11:53:00,88.0,77.0,29.95,SW,214,0.0,6.0,71,0.00,,,0.00,,2013-08-30 16:53:00,
2013-08-30 12:13:00,89.0,78.0,29.95,West,265,0.0,5.0,70,0.00,,,0.00,,2013-08-30 17:13:00,
2013-08-30 12:23:00,89.0,77.0,29.95,SSW,203,0.0,6.0,67,0.00,,,0.00,,2013-08-30 17:23:00,
2013-08-30 12:42:00,90.0,77.0,29.94,SW,215,1.0,5.0,65,0.00,,,0.00,,2013-08-30 17:42:00,
2013-08-30 12:53:00,90.0,76.0,29.94,SSE,167,0.0,8.0,64,0.00,,,0.00,,2013-08-30 17:53:00,
2013-08-30 13:12:00,90.0,77.0,29.93,NW,319,0.0,6.0,66,0.00,,,0.00,,2013-08-30 18:12:00,
2013-08-30 13:22:00,91.0,76.0,29.93,NW,313,1.0,5.0,61,0.00,,,0.00,,2013-08-30 18:22:00,
2013-08-30 13:42:00,91.0,75.0,29.93,WNW,289,0.0,7.0,59,0.00,,,0.00,,2013-08-30 18:42:00,
2013-08-30 13:52:00,92.0,77.0,29.92,West,259,0.0,4.0,61,0.00,,,0.00,,2013-08-30 18:52:00,
2013-08-30 14:12:00,92.0,74.0,29.92,SW,217,0.0,4.0,56,0.00,,,0.00,,2013-08-30 19:12:00,
2013-08-30 14:22:00,93.0,75.0,29.91,SSW,211,0.0,6.0,56,0.00,,,0.00,,2013-08-30 19:22:00,
2013-08-30 14:53:00,93.0,74.0,29.90,South,188,0.0,6.0,55,0.00,,,0.00,,2013-08-30 19:53:00,
2013-08-30 15:11:00,93.0,74.0,29.90,South,187,0.0,3.0,55,0.00,,,0.00,,2013-08-30 20:11:00,
2013-08-30 15:22:00,93.0,73.0,29.89,SSW,195,0.0,3.0,53,0.00,,,0.00,,2013-08-30 20:22:00,
2013-08-30 15:52:00,94.0,75.0,29.88,West,263,0.0,6.0,54,0.00,,,0.00,,2013-08-30 20:52:00,
2013-08-30 16:11:00,94.0,76.0,29.88,WSW,255,0.0,2.0,57,0.00,,,0.00,,2013-08-30 21:11:00,
2013-08-30 16:22:00,93.0,74.0,29.88,ESE,112,0.0,1.0,55,0.00,,,0.00,,2013-08-30 21:22:00,
2013-08-30 16:54:00,93.0,75.0,29.87,South,188,0.0,2.0,56,0.00,,,0.00,,2013-08-30 21:54:00,
2013-08-30 17:13:00,93.0,75.0,29.87,SW,227,1.0,7.0,56,0.00,,,0.00,,2013-08-30 22:13:00,
2013-08-30 17:24:00,92.0,76.0,29.86,South,191,0.0,2.0,59,0.00,,,0.00,,2013-08-30 22:24:00,
2013-08-30 17:54:00,92.0,76.0,29.86,SSW,196,0.0,0.0,59,0.00,,,0.00,,2013-08-30 22:54:00,
2013-08-30 18:12:00,91.0,76.0,29.86,SSW,202,0.0,0.0,62,0.00,,,0.00,,2013-08-30 23:12:00,
2013-08-30 18:22:00,90.0,76.0,29.86,SSW,207,0.0,0.0,64,0.00,,,0.00,,2013-08-30 23:22:00,
2013-08-30 18:53:00,88.0,74.0,29.85,South,190,0.0,0.0,64,0.00,,,0.00,,2013-08-30 23:53:00,
2013-08-30 19:11:00,87.0,75.0,29.85,SSW,206,0.0,0.0,67,0.00,,,0.00,,2013-08-31 00:11:00,
2013-08-30 19:22:00,86.0,75.0,29.85,SSW,206,0.0,0.0,70,0.00,,,0.00,,2013-08-31 00:22:00,
2013-08-30 19:42:00,85.0,75.0,29.86,SSW,206,0.0,0.0,73,0.00,,,0.00,,2013-08-31 00:42:00,
2013-08-30 19:52:00,83.0,74.0,29.85,SSW,206,0.0,0.0,75,0.00,,,0.00,,2013-08-31 00:52:00,
2013-08-30 20:11:00,83.0,76.0,29.86,SSW,206,0.0,0.0,79,0.00,,,0.00,,2013-08-31 01:11:00,
2013-08-30 20:22:00,82.0,74.0,29.86,SSW,206,0.0,0.0,78,0.00,,,0.00,,2013-08-31 01:22:00,
2013-08-30 20:42:00,82.0,74.0,29.87,SSW,206,0.0,0.0,78,0.00,,,0.00,,2013-08-31 01:42:00,
2013-08-30 20:52:00,82.0,74.0,29.87,SSW,206,0.0,0.0,78,0.00,,,0.00,,2013-08-31 01:52:00,
2013-08-30 21:12:00,81.0,73.0,29.88,SSW,206,0.0,0.0,78,0.00,,,0.00,,2013-08-31 02:12:00,
2013-08-30 21:22:00,80.0,74.0,29.88,SSW,206,0.0,0.0,82,0.00,,,0.00,,2013-08-31 02:22:00,
2013-08-30 21:42:00,79.0,73.0,29.88,SW,221,0.0,0.0,83,0.00,,,0.00,,2013-08-31 02:42:00,
2013-08-30 21:52:00,79.0,74.0,29.87,SW,221,0.0,0.0,84,0.00,,,0.00,,2013-08-31 02:52:00,
2013-08-30 22:12:00,79.0,74.0,29.87,SW,221,0.0,0.0,84,0.00,,,0.00,,2013-08-31 03:12:00,
2013-08-30 22:22:00,79.0,74.0,29.87,SW,221,0.0,0.0,85,0.00,,,0.00,,2013-08-31 03:22:00,
2013-08-30 22:44:00,79.0,74.0,29.87,SSW,200,0.0,0.0,84,0.00,,,0.00,,2013-08-31 03:44:00,
2013-08-30 22:54:00,78.0,73.0,29.86,SSW,200,0.0,0.0,85,0.00,,,0.00,,2013-08-31 03:54:00,
2013-08-30 23:14:00,78.0,73.0,29.86,SSW,200,0.0,0.0,85,0.00,,,0.00,,2013-08-31 04:14:00,
2013-08-30 23:24:00,78.0,73.0,29.86,SSW,192,0.0,0.0,84,0.00,,,0.00,,2013-08-31 04:24:00,
2013-08-30 23:44:00,78.0,72.0,29.86,South,178,0.0,0.0,82,0.00,,,0.00,,2013-08-31 04:44:00,
2013-08-30 23:54:00,78.0,72.0,29.86,South,185,0.0,0.0,82,0.00,,,0.00,,2013-08-31 04:54:00,